contact:dominique.lefevre@mio.osupytheas.fr, maurice.libes@osupytheas.fr
Project:EMSO Ligure-ouest http://www.emso-fr.org/EMSO-France
Sensor Aquadopp, line 13 Serial AQD14315 
DOI : "https://doi.org/10.17882/74513; https://doi.org/10.17882/83244" 
Title:EMSO Ligure Ouest : Data ligne ALBATROSS capteur AQUADOPP - deploiement 2021
Id,Date,Profondeur,Latitude,Longitude,X_East,Y_North,Z_Up,Amplitude_X,Amplitude_Y,Amplitude_Z,Batterie,SoundSpeed,Heading,Pitch,Roll,Pressure,Temperature,Speed,Direction
, , m, degrees North, degrees East, m.s-1, m.s-1,m.s-1, 1, 1, 1, Volt, m.s-1, degree, degree, degree, dbar, degree_C, m.s-1, degree
09,2022-08-06T23:30:00,2000.0,42.79,6.0312,-0.066,-0.021,0.005,65.0,63.0,64.0,13.0,1504.7,261.4,-1.4,1.1,1992.659,13.28,0.069,252.4
09,2022-08-07T00:00:00,2000.0,42.79,6.0312,-0.045,-0.02,-0.012,66.0,63.0,66.0,13.0,1504.7,257.4,-1.3,1.0,1992.633,13.28,0.049,246.0
09,2022-08-07T00:30:00,2000.0,42.79,6.0312,-0.043,0.0,0.001,66.0,61.0,63.0,13.0,1504.7,256.1,-1.1,1.1,1992.651,13.28,0.043,270.0
09,2022-08-07T01:00:00,2000.0,42.79,6.0312,-0.057,-0.017,-0.014,65.0,64.0,65.0,13.0,1504.7,256.4,-1.0,1.0,1992.636,13.28,0.059,253.4
09,2022-08-07T02:00:00,2000.0,42.79,6.0312,-0.057,0.002,-0.007,65.0,62.0,65.0,13.0,1504.7,262.0,-0.9,1.0,1992.588,13.28,0.057,272.0
09,2022-08-07T02:30:00,2000.0,42.79,6.0312,-0.054,-0.022,0.013,67.0,62.0,66.0,13.0,1504.7,252.4,-1.4,1.0,1992.61,13.28,0.058,247.8
09,2022-08-07T03:00:00,2000.0,42.79,6.0312,-0.049,-0.011,-0.005,68.0,63.0,65.0,13.0,1504.7,248.2,-1.3,1.0,1992.628,13.28,0.05,257.3
09,2022-08-07T03:30:00,2000.0,42.79,6.0312,-0.058,-0.011,-0.035,66.0,62.0,64.0,13.0,1504.7,245.4,-1.2,1.1,1992.604,13.28,0.059,259.3
09,2022-08-07T04:00:00,2000.0,42.79,6.0312,-0.051,-0.021,0.017,66.0,64.0,64.0,13.0,1504.7,244.0,-1.7,1.0,1992.598,13.28,0.055,247.6
09,2022-08-07T04:30:00,2000.0,42.79,6.0312,-0.043,-0.007,-0.03,64.0,62.0,66.0,13.0,1504.7,255.7,-1.5,0.8,1992.629,13.28,0.043,260.8
09,2022-08-07T05:00:00,2000.0,42.79,6.0312,-0.052,0.01,-0.008,65.0,64.0,67.0,13.0,1504.7,264.9,-1.4,0.9,1992.629,13.28,0.052,280.9
09,2022-08-07T05:30:00,2000.0,42.79,6.0312,-0.06,0.021,0.01,67.0,62.0,64.0,13.0,1504.7,272.9,-1.2,0.9,1992.632,13.28,0.063,289.3
09,2022-08-07T06:00:00,2000.0,42.79,6.0312,-0.031,0.021,0.015,67.0,62.0,66.0,13.0,1504.7,272.0,-1.1,0.8,1992.56,13.28,0.037,304.1
09,2022-08-07T06:30:00,2000.0,42.79,6.0312,-0.026,-0.025,0.007,66.0,63.0,65.0,13.0,1504.7,241.0,-1.2,1.1,1992.577,13.28,0.036,226.1
09,2022-08-07T07:00:00,2000.0,42.79,6.0312,-0.041,0.005,-0.018,67.0,62.0,64.0,13.0,1504.7,250.6,-1.5,0.9,1992.525,13.28,0.041,277.0
09,2022-08-07T07:30:00,2000.0,42.79,6.0312,-0.051,-0.001,0.014,67.0,63.0,65.0,13.0,1504.7,263.2,-1.0,1.0,1992.515,13.28,0.051,268.9
09,2022-08-07T08:00:00,2000.0,42.79,6.0312,-0.046,-0.008,0.004,66.0,63.0,66.0,13.0,1504.7,246.5,-1.3,1.1,1992.467,13.28,0.046,260.1
09,2022-08-07T08:30:00,2000.0,42.79,6.0312,-0.027,-0.017,-0.037,64.0,62.0,65.0,13.0,1504.7,257.5,-1.3,1.0,1992.525,13.28,0.031,237.8
09,2022-08-07T09:00:00,2000.0,42.79,6.0312,-0.047,0.0,-0.002,65.0,62.0,66.0,13.0,1504.7,266.7,-1.2,0.9,1992.481,13.28,0.047,270.0
09,2022-08-07T09:30:00,2000.0,42.79,6.0312,-0.05,-0.019,-0.005,65.0,63.0,65.0,13.0,1504.7,254.4,-1.4,1.0,1992.485,13.28,0.053,249.2
09,2022-08-07T10:00:00,2000.0,42.79,6.0312,-0.046,-0.014,-0.026,65.0,61.0,65.0,13.0,1504.7,263.7,-1.3,1.0,1992.463,13.28,0.048,253.1
09,2022-08-07T10:30:00,2000.0,42.79,6.0312,-0.048,-0.043,-0.004,64.0,61.0,68.0,13.0,1504.7,237.0,-1.1,1.1,1992.524,13.28,0.064,228.1
09,2022-08-07T11:00:00,2000.0,42.79,6.0312,-0.031,-0.01,0.004,65.0,62.0,66.0,13.0,1504.7,244.7,-1.4,1.1,1992.514,13.28,0.032,252.1
09,2022-08-07T11:30:00,2000.0,42.79,6.0312,-0.027,-0.006,0.002,65.0,62.0,64.0,13.0,1504.7,267.0,-1.1,0.9,1992.561,13.28,0.027,257.5
09,2022-08-07T12:00:00,2000.0,42.79,6.0312,-0.04,-0.015,-0.014,64.0,60.0,65.0,13.0,1504.7,260.0,-1.2,0.9,1992.558,13.28,0.042,249.4
09,2022-08-07T12:30:00,2000.0,42.79,6.0312,-0.036,-0.045,-0.002,65.0,63.0,66.0,13.0,1504.7,246.9,-1.0,1.0,1992.545,13.28,0.057,218.7
09,2022-08-07T13:00:00,2000.0,42.79,6.0312,-0.066,-0.026,-0.009,66.0,63.0,65.0,13.0,1504.7,255.3,-1.3,1.1,1992.584,13.28,0.07,248.5
09,2022-08-07T13:30:00,2000.0,42.79,6.0312,-0.063,-0.02,0.0,66.0,63.0,65.0,13.0,1504.7,262.1,-1.1,1.0,1992.585,13.28,0.066,252.4
09,2022-08-07T14:00:00,2000.0,42.79,6.0312,-0.066,-0.007,-0.005,67.0,62.0,67.0,13.0,1504.7,259.9,-1.3,0.9,1992.613,13.28,0.066,263.9
09,2022-08-07T15:00:00,2000.0,42.79,6.0312,-0.081,-0.013,-0.017,65.0,63.0,64.0,13.0,1504.7,264.5,-1.0,0.9,1992.651,13.28,0.082,260.9
09,2022-08-07T15:30:00,2000.0,42.79,6.0312,-0.07,-0.032,-0.027,66.0,61.0,65.0,13.0,1504.7,246.5,-0.9,1.1,1992.67,13.28,0.076,245.4
09,2022-08-07T16:00:00,2000.0,42.79,6.0312,-0.047,-0.014,0.009,67.0,64.0,67.0,13.0,1504.7,261.5,-1.0,0.8,1992.635,13.28,0.049,253.4
09,2022-08-07T16:30:00,2000.0,42.79,6.0312,-0.048,-0.004,-0.011,66.0,61.0,66.0,13.0,1504.7,249.8,-1.0,1.1,1992.645,13.28,0.048,265.2
09,2022-08-07T17:00:00,2000.0,42.79,6.0312,-0.042,-0.033,0.034,65.0,61.0,65.0,13.0,1504.7,243.1,-1.1,1.1,1992.631,13.28,0.053,231.8
09,2022-08-07T17:30:00,2000.0,42.79,6.0312,-0.058,-0.007,-0.001,67.0,65.0,68.0,13.0,1504.7,249.9,-1.2,0.9,1992.648,13.28,0.058,263.1
09,2022-08-07T18:00:00,2000.0,42.79,6.0312,-0.054,0.0,-0.033,64.0,63.0,68.0,13.0,1504.7,248.1,-1.1,1.0,1992.61,13.28,0.053,270.0
09,2022-08-07T18:30:00,2000.0,42.79,6.0312,-0.061,-0.014,-0.001,64.0,63.0,65.0,13.0,1504.7,241.6,-0.9,1.2,1992.576,13.28,0.062,257.1
09,2022-08-07T19:00:00,2000.0,42.79,6.0312,-0.066,-0.02,0.016,67.0,64.0,68.0,13.0,1504.7,237.1,-0.9,1.1,1992.594,13.28,0.068,253.1
09,2022-08-07T19:30:00,2000.0,42.79,6.0312,-0.056,-0.007,0.001,65.0,62.0,67.0,13.0,1504.7,248.2,-1.0,1.1,1992.613,13.28,0.056,262.9
09,2022-08-07T20:00:00,2000.0,42.79,6.0312,-0.053,0.001,0.022,65.0,65.0,64.0,13.0,1504.7,249.3,-1.1,1.0,1992.569,13.28,0.053,271.1
09,2022-08-07T20:30:00,2000.0,42.79,6.0312,-0.057,-0.034,-0.007,66.0,62.0,66.0,13.0,1504.7,245.1,-0.7,1.1,1992.622,13.28,0.066,239.2
09,2022-08-07T21:00:00,2000.0,42.79,6.0312,-0.039,0.006,-0.001,65.0,63.0,65.0,13.0,1504.7,248.2,-1.1,1.0,1992.546,13.28,0.039,278.7
09,2022-08-07T21:30:00,2000.0,42.79,6.0312,-0.055,-0.009,-0.008,65.0,65.0,65.0,13.0,1504.7,247.8,-1.3,0.9,1992.57,13.28,0.055,260.7
09,2022-08-07T22:00:00,2000.0,42.79,6.0312,-0.052,-0.024,-0.033,69.0,62.0,64.0,13.0,1504.7,240.6,-1.0,1.0,1992.575,13.28,0.057,245.2
09,2022-08-07T22:30:00,2000.0,42.79,6.0312,-0.032,0.007,-0.027,64.0,64.0,67.0,13.0,1504.7,237.1,-0.8,1.1,1992.541,13.28,0.032,282.3
09,2022-08-07T23:00:00,2000.0,42.79,6.0312,-0.036,0.013,-0.021,67.0,63.0,64.0,13.0,1504.7,245.9,-1.1,1.0,1992.553,13.28,0.038,289.9
